sat.trackr.live / text

‹ back to catalog

STARLINK-2530

NORAD 48303 · 2021-036AD

PAYLOAD ACTIVE UNKNOWN

§ Identity

Operator
Country
US
Launch date
2021-04-29
Launch site
AFETR
Launch vehicle
Mass (kg)
RCS (m²)

Purposes: comms

External: N2YO · Heavens-Above · Gunter

§ Orbital elements

Epoch: 2026-05-25T02:24:16.339104Z

Period
94.01 min
Inclination
53.1598°
Eccentricity
0.0001309
Mean motion
15.31698196 rev/d
Perigee alt
469.8 km
Apogee alt
471.6 km
Semi-major
6,848.9 km
B*
6.5856e-6
RAAN
93.0639°
Arg perigee
86.0627°
Mean anomaly
274.0524°
Rev number
27,992

§ Raw data

STARLINK-25301 48303U 21036AD  26145.10018911 -.00000161  00000+0  65856-5 0  99922 48303  53.1598  93.0639 0001309  86.0627 274.0524 15.31698196279925

JSON: /api/v1/satellites/48303 · /tle

For live sub-satellite position, see the globe view (requires WebGL).

§ Visibility from observer

Set your observer location to see the next 7 days of passes ≥ 10°. The values pass through the URL so the page stays shareable.

No JS? Fill the form by hand. The geolocation button needs JavaScript.